Home > Weather > Dhaka > Past weeks

Flag for Bangladesh Weather for the Past 2 Weeks in Dhaka, Bangladesh

Now
86 °F

Broken clouds.


Feels Like: 92 °F
Forecast: 76 / 95 °F
Wind: 3 mph from Southwest

Location: Agartala Airport

Current Time: May 2, 2016 at 12:00:42 PM

Latest Report: May 2, 2016 at 11:00 AM


Visibility: 4 mi

Pressure: 29.77 "Hg

Humidity: 62%

Dew Point: 72 °F

Location of DhakaLocation

Historic Weather in Dhaka — Graph

°F

Dhaka Temperature Yesterday

Maximum temperature yesterday: 95 °F (at 12:30 PM)
Minimum temperature yesterday: 82 °F (at 6:30 AM)
Average temperature yesterday: 91 °F

High & Low Weather Summary for the Past Weeks

 TemperatureHumidityPressure
High97 °F (Apr 24, 12:30 PM)94% (Apr 18, 6:00 AM)29.83 "Hg (Apr 18, 6:00 AM)
Low70 °F (May 2, 6:00 AM)53% (Apr 20, 1:30 PM)29.47 "Hg (Apr 23, 3:00 PM)
Average89 °F71%29.66 "Hg
* Reported Apr 17 10:00 AM — May 2 10:30 AM, Dhaka, Weather by CustomWeather, © 2016

Note: Actual official high and low records may vary slightly from our data, if they occured in-between our weather recording intervals... More about our weather records

Advertising

Dhaka Weather History for the Previous 24 Hours

Scroll right to see more
 ConditionsComfort  
Time TempWeatherWind HumidityBarometerVisibility
10:30 AM
Mon, May 2
84 °FBroken clouds.6 mph66%29.77 "Hg4 mi
10:00 AM82 °FBroken clouds.6 mph66%29.77 "Hg4 mi
9:30 AM81 °FScattered clouds.6 mph66%29.77 "Hg4 mi
9:00 AM81 °FScattered clouds.6 mph70%29.80 "Hg3 mi
8:00 AM75 °FFog.5 mph78%29.77 "Hg3 mi
7:30 AM73 °FFog.5 mph83%29.77 "Hg3 mi
7:00 AM72 °FFog.3 mph83%29.77 "Hg2 mi
6:30 AM70 °FFog.5 mph88%29.74 "Hg2 mi
6:00 AM70 °FFog.5 mph88%29.74 "Hg2 mi
7:30 PM
Sun, May 1
88 °FPassing clouds.7 mph75%29.65 "Hg3 mi
7:00 PM88 °FHaze.8 mph75%29.62 "Hg3 mi
6:30 PM90 °FHaze.7 mph67%29.56 "Hg3 mi
6:00 PM90 °FHaze.6 mph67%29.56 "Hg3 mi
5:30 PM93 °FClear.7 mph63%29.56 "Hg4 mi
5:00 PM93 °FPassing clouds.8 mph63%29.56 "Hg4 mi
4:30 PM93 °FScattered clouds.7 mph63%29.56 "Hg4 mi
4:00 PM93 °FScattered clouds.9 mph56%29.59 "Hg4 mi
3:30 PM95 °FScattered clouds.7 mph53%29.59 "Hg4 mi
3:00 PM95 °FBroken clouds.8 mph53%29.59 "Hg4 mi
2:30 PM95 °FScattered clouds.7 mph56%29.62 "Hg4 mi
2:00 PM95 °FScattered clouds.9 mph56%29.62 "Hg4 mi
1:00 PM95 °FScattered clouds.8 mph56%29.65 "Hg4 mi
12:30 PM95 °FScattered clouds.10 mph56%29.68 "Hg4 mi
12:00 PM93 °FScattered clouds.8 mph59%29.68 "Hg3 mi
Weather by CustomWeather, © 2016

See weather overviewHow to use our weather pages